Terminal Aerodrome Forecast
Issued by NWS Charleston, WV

Home | Current Version | Previous Version | Text Only | Print | Product List | Glossary On
Versions: 1 2 3 4 5 6 7 8 9 10 11 12 13 14 15 16 17 18 19 20 21 22 23 24 25 26 27 28
000
FTUS41 KRLX 230925 AAA
TAFHTS
TAF AMD
KHTS 230925Z 2309/2406 03004KT 6SM -RA BKN008 OVC080
     FM231400 02011G18KT 4SM -RA OVC012
     FM231900 01008KT 3SM -RA OVC008
     FM240200 34007KT P6SM OVC007
     FM240500 33007KT P6SM OVC013=

USA.gov is the U.S. government's official web portal to all federal, state and local government web resources and services.